Preview of NWS' New Version of Forecast
This preview is not operational and should not be used for support decisions.

Regional Weather Roundup (RWR)

Issued by National Weather Service (NWS)

                            
000
ASCA42 TJSJ 222210
RWRPR 
PUERTO RICO/U.S. VIRGIN ISLANDS HOURLY WEATHER ROUNDUP
NATIONAL WEATHER SERVICE SAN JUAN PR
600 PM AST FRI FEB 22 2019

PRZ001>002-007>008-010-222300-
PUERTO RICO
  
CITY           SKY/WX    TMP DP  RH WIND       PRES   REMARKS
SAN JUAN LMM   PTCLDY    81  72  74 E20       30.12R                  
AGUADILLA      CLOUDY    79  66  65 E21G26    30.11S                  
CEIBA          CLOUDY    77  70  78 E12       30.13R                  
$$

VIZ001>002-222300-
U.S. VIRGIN ISLANDS
  
CITY           SKY/WX    TMP DP  RH WIND       PRES   REMARKS
CHARLOTTE AMA  CLEAR     81  68  65 E15       30.11R                  
CHRISTIANSTED  PTCLDY    81  70  69 NE16      30.10R                  
$$

HOURLY WEATHER ROUNDUP FOR THE NEWS MEDIA
  
CITY           SKY/WX    TMP DP  RH WIND       PRES   REMARKS
ORLANDO        FAIR      85  62  46 SW6       30.11F                  
NEW YORK       CLOUDY    43  24  47 N14       30.37S                  
NEWARK         CLOUDY    44  20  38 NW10      30.37S                  
CHICAGO        FAIR      38  24  57 E9        30.35F WCI  31          
HARTFORD       FAIR      43  22  43 CALM      30.31R                  
BOSTON         CLOUDY    44  22  41 NW9       30.32R                  
DALLAS         CLOUDY    50  48  93 E8        29.92S                  
PHILADELPHIA   CLOUDY    45  24  43 N7        30.38S                  
LOS ANGELES    MOSUNNY   59  26  28 W14       30.01S                  
WASHINGTON DC  CLOUDY    44  26  49 N7        30.39S